Location: Unspecified
(50.8500°N, 5.6830°E)
Time: 08:55:57
(UTC+01:00)

ISS - Visible Passes

Search period start: 20 November 2018 00:00
Search period end: 30 November 2018 00:00
Orbit: 401 x 408 km, 51.6° (Epoch: 20 November)

Date Brightness Start Highest point End Pass type
(mag) Time Alt. Az. Time Alt. Az. Time Alt. Az.
24 Nov -1.2 18:33:59 10° SSE 18:34:02 10° SSE 18:34:02 10° SSE visible
25 Nov -1.3 19:15:55 10° SW 19:16:53 17° SSW 19:16:53 17° SSW visible
26 Nov -2.2 18:24:19 10° SSW 18:26:51 21° SE 18:26:58 21° SE visible
27 Nov -1.5 17:33:12 10° S 17:34:53 13° SE 17:36:35 10° ESE visible
27 Nov -2.3 19:07:38 10° SW 19:09:38 32° SW 19:09:38 32° SW visible
28 Nov -2.9 18:15:40 10° SW 18:18:43 36° SSE 18:19:34 30° ESE visible
28 Nov -0.5 19:51:47 10° W 19:52:14 13° W 19:52:14 13° W visible
29 Nov -2.2 17:23:55 10° SSW 17:26:38 24° SE 17:29:21 10° E visible
29 Nov -3.1 18:59:33 10° WSW 19:02:07 52° WSW 19:02:07 52° WSW visible
